Weather History for VTSP - October, 2012

Change the Weather History Date:

Sunday, October 14, 2012

  Actual Average Record
Temperature  
Mean Temperature 80 °F -  
Max Temperature 86 °F 87 °F 93 °F (2001)
Min Temperature 74 °F 76 °F 69 °F (1997)
Cooling Degree Days 15    
Growing Degree Days 30 (Base 50)    
Moisture  
Dew Point 74 °F    
Average Humidity 82    
Maximum Humidity 94    
Minimum Humidity 69    
Precipitation  
Precipitation 2.32 in 0.36 in - ()
Sea Level Pressure  
Sea Level Pressure 29.84 in    
Wind  
Wind Speed 4 mph ()    
Max Wind Speed 14 mph    
Max Gust Speed 16 mph    
Visibility 4.8 miles    
Events Rain    
Averages and records for this station are not official NWS values.
T = Trace of Precipitation, MM = Missing Value Source: Averaged Metar Reports

Daily Weather History Graph

Daily Weather History Graph

Search for Another Location

Airport or City:

Trip Planner

Search our weather history database for the weather conditions in past years. The results will help you decide how hot, cold, wet, or windy it might be!

Date:

Astronomy

Oct. 14, 2012 Rise Set
Actual Time 6:14 AM ICT 6:11 PM ICT
Civil Twilight 5:53 AM ICT 6:32 PM ICT
Nautical Twilight 5:28 AM ICT 6:56 PM ICT
Astronomical Twilight 5:04 AM ICT 7:21 PM ICT
Moon 4:48 AM ICT (10/14) 5:07 PM ICT (10/14)
Length of Visible Light 12h 39m
Length of Day
11h 57m
Waning Crescent, 2% of the Moon is Illuminated
Oct 14
Waning Crescent
Oct 15
New
Oct 22
First Quarter
Oct 30
Full
Nov 7
Last Quarter

Hourly Weather History & Observations

Time (ICT) Temp. Heat Index Dew Point Humidity Pressure Visibility Wind Dir Wind Speed Gust Speed Precip Events Conditions
12:00 AM 80.6 °F 86.2 °F 75.2 °F 84% 29.89 in 5.6 mi Variable 2.3 mph - N/A   Mostly Cloudy
12:30 AM 78.8 °F - 75.2 °F 89% 29.86 in 4.3 mi Variable 2.3 mph - N/A Rain Rain
1:00 AM 80 °F - 78 °F 90% 29.85 in 4 mi Calm Calm - - Rain Light Rain
1:00 AM 78.8 °F - 75.2 °F 89% 29.86 in 4.3 mi ENE 3.5 mph - N/A Rain Light Rain
1:30 AM 78.8 °F - 75.2 °F 89% 29.83 in 5.0 mi Variable 1.2 mph - N/A   Mostly Cloudy
2:00 AM 78.8 °F - 75.2 °F 89% 29.83 in 5.0 mi Variable 2.3 mph - N/A   Mostly Cloudy
2:30 AM 78.8 °F - 75.2 °F 89% 29.83 in 5.0 mi Calm Calm - N/A   Mostly Cloudy
3:00 AM 77.0 °F - 71.6 °F 83% 29.83 in 5.0 mi SW 11.5 mph - N/A   Mostly Cloudy
3:30 AM 77.0 °F - 73.4 °F 89% 29.83 in 4.3 mi Variable 3.5 mph - N/A   Mostly Cloudy
4:00 AM 77.0 °F - 71.6 °F 83% 29.83 in 4.3 mi SE 5.8 mph - N/A Rain Light Rain
4:30 AM 77.0 °F - 73.4 °F 89% 29.83 in 4.3 mi SSE 5.8 mph - N/A   Mostly Cloudy
5:00 AM 77.0 °F - 73.4 °F 89% 29.83 in 4.3 mi SSE 4.6 mph - N/A Rain Light Rain
5:30 AM 77.0 °F - 73.4 °F 89% 29.83 in 4.3 mi ESE 3.5 mph - N/A Rain Light Rain
6:00 AM 75.2 °F - 73.4 °F 94% 29.83 in 4.3 mi Variable 2.3 mph - N/A Rain Light Rain
6:30 AM 77.0 °F - 73.4 °F 89% 29.86 in 4.3 mi Variable 1.2 mph - N/A   Mostly Cloudy
7:00 AM 77 °F - 75 °F 90% 29.82 in 6 mi Calm Calm - - Rain Light Rain
7:00 AM 77.0 °F - 71.6 °F 83% 29.86 in 5.0 mi South 3.5 mph - N/A   Mostly Cloudy
7:30 AM 77.0 °F - 73.4 °F 89% 29.86 in 5.0 mi Calm Calm - N/A   Mostly Cloudy
8:00 AM 78.8 °F - 73.4 °F 83% 29.89 in 5.0 mi Variable 2.3 mph - N/A   Mostly Cloudy
8:30 AM 78.8 °F - 73.4 °F 83% 29.89 in 5.0 mi Variable 2.3 mph - N/A   Mostly Cloudy
9:00 AM 80.6 °F 85.4 °F 73.4 °F 79% 29.92 in 5.0 mi Calm Calm - N/A   Mostly Cloudy
9:30 AM 80.6 °F 85.4 °F 73.4 °F 79% 29.92 in 5.0 mi Variable 2.3 mph - N/A   Mostly Cloudy
10:00 AM 82.4 °F 88.2 °F 73.4 °F 74% 29.92 in 5.6 mi SW 4.6 mph 16.1 mph N/A   Mostly Cloudy
11:00 AM 82.4 °F 88.2 °F 73.4 °F 74% 29.89 in 5.6 mi WSW 6.9 mph - N/A   Mostly Cloudy
11:30 AM 82.4 °F 89.5 °F 75.2 °F 79% 29.89 in 5.0 mi WSW 8.1 mph - N/A   Mostly Cloudy
12:00 PM 82.4 °F 89.5 °F 75.2 °F 79% 29.86 in 5.0 mi WSW 5.8 mph - N/A   Mostly Cloudy
12:30 PM 84.2 °F 92.3 °F 75.2 °F 74% 29.86 in 5.0 mi WSW 6.9 mph - N/A   Mostly Cloudy
1:00 PM 86 °F - 77 °F 69% 29.84 in 6 mi West 5.8 mph - -   Scattered Clouds
1:00 PM 84.2 °F 92.3 °F 75.2 °F 74% 29.83 in 5.6 mi West 6.9 mph - N/A   Mostly Cloudy
1:30 PM 84.2 °F 92.3 °F 75.2 °F 74% 29.83 in 5.6 mi WSW 8.1 mph - N/A   Mostly Cloudy
2:00 PM 84.2 °F 92.3 °F 75.2 °F 74% 29.80 in 5.0 mi WSW 9.2 mph - N/A   Mostly Cloudy
2:30 PM 84.2 °F 90.9 °F 73.4 °F 70% 29.80 in 5.0 mi WSW 9.2 mph - N/A   Mostly Cloudy
3:00 PM 84.2 °F 92.3 °F 75.2 °F 74% 29.77 in 5.0 mi WSW 9.2 mph - N/A   Mostly Cloudy
3:30 PM 84.2 °F 92.3 °F 75.2 °F 74% 29.77 in 5.0 mi WSW 8.1 mph - N/A   Mostly Cloudy
4:00 PM 84.2 °F 92.3 °F 75.2 °F 74% 29.77 in 5.0 mi WSW 8.1 mph - N/A   Mostly Cloudy
4:30 PM 84.2 °F 90.9 °F 73.4 °F 70% 29.77 in 6.2 mi WSW 8.1 mph - N/A   Mostly Cloudy
5:00 PM 84.2 °F 90.9 °F 73.4 °F 70% 29.77 in 5.6 mi WSW 6.9 mph - N/A   Mostly Cloudy
5:30 PM 82.4 °F 88.2 °F 73.4 °F 74% 29.77 in 5.0 mi West 4.6 mph - N/A   Mostly Cloudy
6:00 PM 82.4 °F 89.5 °F 75.2 °F 79% 29.77 in 5.0 mi Variable 3.5 mph - N/A   Mostly Cloudy
6:30 PM 82.4 °F 88.2 °F 73.4 °F 74% 29.80 in 5.0 mi Variable 3.5 mph - N/A   Mostly Cloudy
7:00 PM 84 °F - 77 °F 75% 29.78 in 6 mi Calm Calm - -   Scattered Clouds
7:00 PM 82.4 °F 89.5 °F 75.2 °F 79% 29.80 in 5.0 mi West 4.6 mph - N/A   Mostly Cloudy
7:30 PM 82.4 °F 89.5 °F 75.2 °F 79% 29.83 in 5.0 mi Variable 3.5 mph - N/A   Mostly Cloudy
8:00 PM 82.4 °F 89.5 °F 75.2 °F 79% 29.83 in 5.0 mi West 5.8 mph - N/A   Mostly Cloudy
8:30 PM 82.4 °F 89.5 °F 75.2 °F 79% 29.86 in 5.0 mi West 6.9 mph - N/A   Mostly Cloudy
9:00 PM 82.4 °F 89.5 °F 75.2 °F 79% 29.86 in 5.0 mi West 8.1 mph - N/A   Mostly Cloudy
9:30 PM 80.6 °F 87.1 °F 77.0 °F 89% 29.86 in 5.0 mi WSW 5.8 mph - N/A   Mostly Cloudy
10:00 PM 77.0 °F - 73.4 °F 89% 29.86 in 1.9 mi East 13.8 mph - N/A Rain Rain
10:30 PM 75.2 °F - 73.4 °F 94% 29.89 in 1.2 mi ENE 5.8 mph - N/A Rain Rain
11:00 PM 75.2 °F - 73.4 °F 94% 29.89 in 3.1 mi NNE 6.9 mph - N/A Rain Rain
11:30 PM 75.2 °F - 73.4 °F 94% 29.89 in 1.9 mi West 6.9 mph - N/A Rain Rain